STARLINK-34431, 64353

Orbit data source: Space-Track

STARLINK-34431, 64353 is a payload satellite owned by SpaceX/Seattle (US) in LEO that was launched on Fri, 13 Jun 2025 UTC via an FALCON 9 launch vehicle from the Air Force Western Test Range (AFWTR). Payload-class satellites include a variety of spacecraft equipped with specific instruments for various scientific and technological missions. These include communications satellites like Starlink; space stations such as the ISS; scientific satellites like the Hubble; Earth observation satellites from companies like Planet Labs, Umbra, and HawkEye 360; GPS; miniature CubeSats for education and research; and military/defense satellites.

Loading next visibility...
Identifier
64353, 2025-126K
Orbit
LEO
Country
Flag of USUS
Related business
Manufacturer
SpaceX/Seattle
Mission
Operational Commercial Communications
Bus & Motor
STARLINK V2MO, Unknown motor
Mass
575 kg wet, ~530 kg dry
Launch date (UTC)
2025-06-13 (1 year ago)
Launch vehicle
FALCON 9
Launch site
Air Force Western Test Range (AFWTR)
Object type
Payload
Rocket body
Debris
Shape & HBR
Box + 2 Pan, 17.7 m
Radar Cross Section
36.964 m², Large (>1 m²)

Expand to show TLE details & history
Last TLE update: 13 hours ago

TLE from 13 hours ago
0 STARLINK-34431
1 64353U 25126K   26171.29614433  .00002467  00000-0  21449-3 0  9998
2 64353  70.0006 135.6588 0002816 263.4542  96.6297 14.98334753 56057
Epoch: 2026-06-20T07:06Z
TLE epoch observation values (Epoch: 2026-06-20T07:06:26.870Z)
Latitude
0.00004°
Longitude
120.53405°
Altitude
574.692 km
Speed
7.574 km/s
True Right ascension
09h 02m 38s
True Declination
0° 00' 00"
Sunlit
Object was in daylight at epoch
Visualization orbit readout
Latitude
Unknown
Longitude
Unknown
Altitude
Unknown
Speed
Unknown
Apparent Right ascension
Unknown
Apparent Declination
Unknown
Sunlit
N/A
Visualization observer readout
Local Sidereal Time
07:13:05
Azimuth
Unknown
Elevation
Unknown
Doppler factor
Unknown
Orbital elements
Apogee altitude
571.946 km
Perigee altitude
568.033 km
Semi-major axis
6,948.126 km
Eccentricity
0.00028
Inclination
70.0006°
RAAN
135.6588°
Arg. of periapsis
263.4542°
True anomaly
96.66175°
Mean anomaly
96.6297°
Eccentric anomaly
96.64573°
Mean motion
3.7475 °/min
Orbital period
96.06 mins
BSTAR
0.00021449
Loading maneuver chart data...
Computing Atmospheric mass density...
Loading historical data...
Loading historical data...
Loading historical data...
Loading historical data...
Loading historical data...
Loading historical data...
Loading historical data...

Documentation

Showing up to 5 results
|